This is the latest recevied weather packets stored in our database for station/object KI7MOQ. If no packets are shown the sender has not sent any weather packets the latest 1 day(s).
| Time | Temp. | Humidity | Pressure | Rain* | Wind** | Luminosity | Snow |
|---|---|---|---|---|---|---|---|
| 1777995556 | 12.78° C | 87% | 1018.7 hPa | 0 mm | 0 m/s | 44 W/m² | - |
| 1777995253 | 12.78° C | 87% | 1018.6 hPa | 0 mm | 0 m/s | 34 W/m² | - |
| 1777994950 | 12.78° C | 88% | 1018.6 hPa | 0 mm | 0 m/s | 31 W/m² | - |
| 1777994648 | 12.78° C | 89% | 1018.5 hPa | 0 mm | 0 m/s | 39 W/m² | - |
| 1777994347 | 12.78° C | 89% | 1018.5 hPa | 0 mm | 0 m/s | 28 W/m² | - |
| 1777994044 | 12.78° C | 90% | 1018.6 hPa | 0 mm | 0 m/s | 25 W/m² | - |
| 1777993741 | 12.78° C | 90% | 1018.5 hPa | 0 mm | 0 m/s | 28 W/m² | - |
| 1777993438 | 12.78° C | 90% | 1018.5 hPa | 0 mm | 0 m/s | 22 W/m² | - |
| 1777993133 | 12.78° C | 90% | 1018.5 hPa | 0 mm | 0 m/s | 21 W/m² | - |
| 1777992831 | 12.78° C | 91% | 1018.5 hPa | 0 mm | 0 m/s | 22 W/m² | - |
| 1777992528 | 12.22° C | 91% | 1018.4 hPa | 0 mm | 0 m/s | 21 W/m² | - |
| 1777992227 | 12.22° C | 92% | 1018.5 hPa | 0 mm | 0 m/s | 16 W/m² | - |
| 1777991923 | 12.22° C | 93% | 1018.4 hPa | 0 mm | 0 m/s | 15 W/m² | - |
| 1777991620 | 12.22° C | 95% | 1018.3 hPa | 0 mm | 0 m/s | 14 W/m² | - |
| 1777991317 | 12.22° C | 95% | 1018.2 hPa | 0 mm | 0 m/s | 13 W/m² | - |
| 1777991015 | 12.22° C | 96% | 1018.1 hPa | 0 mm | 0 m/s | 12 W/m² | - |
| 1777990712 | 12.22° C | 96% | 1018.1 hPa | 0 mm | 0 m/s | 10 W/m² | - |
| 1777990409 | 12.22° C | 96% | 1017.9 hPa | 0 mm | 0 m/s | 9 W/m² | - |
| 1777990106 | 12.22° C | 96% | 1018.1 hPa | 0 mm | 0 m/s | 8 W/m² | - |
| 1777989802 | 12.22° C | 96% | 1017.9 hPa | 0 mm | 0 m/s | 6 W/m² | - |
| 1777989500 | 12.22° C | 96% | 1017.8 hPa | 0 mm | 0 m/s | 6 W/m² | - |
| 1777989195 | 12.22° C | 96% | 1017.8 hPa | 0 mm | 0 m/s | 5 W/m² | - |
| 1777988892 | 12.22° C | 95% | 1017.8 hPa | 0 mm | 0 m/s | 5 W/m² | - |
| 1777988589 | 12.22° C | 95% | 1017.9 hPa | 0 mm | 0 m/s | 3 W/m² | - |
| 1777988285 | 12.22° C | 95% | 1017.7 hPa | 0 mm | 0 m/s | 3 W/m² | - |
* Rain latest hour (hover to see other rain measurements)
** Current wind speed in m/s (hover to see current wind gust speed)